Home > Time Zones > World Clock > Weather > Qatar > Doha > Past weeks

Flag for Qatar Weather past 2 weeks in Doha, Qatar

Now
79 °F

Clear.


Feels Like: 81 °F
Forecast: 78 / 93 °F
Wind: 2 mph from North

Location: Doha International Airport

Current Time: Oct 26, 2014 at 1:55:28 AM

Latest Report: Oct 26, 2014 at 1:00 AM


Visibility: 10 mi

Pressure: 29.89 "Hg

Humidity: 65%

Dew point: 66 °F

Location of DohaLocation

Historic Weather in Doha — Graph

°F

Doha temperature yesterday

Maximum temperature yesterday: 90 °F (at 1:00 PM)
Minimum temperature yesterday: 79 °F (at 3:00 AM)
Average temperature yesterday: 83 °F

Past Weeks' High & Low Weather Summary

 TemperatureHumidityPressure
High104 °F (Oct 17, 1:00 PM)100% (Oct 13, 3:00 PM)30.07 "Hg (Oct 13, 3:00 PM)
Low75 °F (Oct 13, 3:00 PM)11% (Oct 18, 12:30 PM)29.80 "Hg (Oct 13, 3:00 PM)
Average89 °F56%29.91 "Hg
* Reported Midnight between Oct 10 and Oct 11 — Oct 26 12:30 AM, Doha, Weather by CustomWeather, © 2014

Note: Actual official high and low records may vary slightly from our data, if they occured in-between our weather recording intervals... More about our weather records

Advertising

Doha weather history for previous 24 hours

 ConditionsComfort  
Time TempWeatherWind HumidityBarometerVisibility
12:30 AM
Oct 26
79 °FClear.2 mph65%29.89 "Hg10 mi
12:00 AM81 °FClear.3 mph62%29.89 "Hg10 mi
11:30 PM
Oct 25
81 °FClear.6 mph62%29.89 "Hg10 mi
11:00 PM81 °FClear.2 mph62%29.89 "Hg10 mi
10:30 PM82 °FClear.5 mph58%29.89 "Hg10 mi
10:00 PM82 °FClear.5 mph58%29.89 "Hg10 mi
9:30 PM82 °FClear.7 mph62%29.89 "Hg10 mi
9:00 PM82 °FClear.7 mph62%29.89 "Hg10 mi
8:30 PM82 °FPassing clouds.5 mph62%29.89 "HgN/A
8:00 PM82 °FClear.5 mph58%29.89 "Hg10 mi
7:00 PM84 °FClear.6 mph55%29.89 "Hg10 mi
6:30 PM84 °FClear.7 mph55%29.89 "Hg10 mi
6:00 PM84 °FClear.6 mph55%29.86 "Hg10 mi
5:00 PM86 °FClear.7 mph55%29.86 "Hg10 mi
4:00 PM88 °FPassing clouds.8 mph49%29.86 "HgN/A
3:00 PM90 °FPassing clouds.7 mph46%29.83 "HgN/A
2:00 PM90 °FPassing clouds.7 mph43%29.83 "HgN/A
1:30 PM90 °FPassing clouds.8 mph43%29.86 "HgN/A
1:00 PM90 °FSunny.8 mph41%29.86 "Hg10 mi
12:00 PM88 °FPassing clouds.7 mph46%29.89 "HgN/A
11:00 AM88 °FPassing clouds.8 mph49%29.92 "HgN/A
10:00 AM86 °FPassing clouds.9 mph49%29.92 "HgN/A
9:30 AM86 °FPassing clouds.10 mph49%29.95 "HgN/A
9:00 AM86 °FPassing clouds.7 mph52%29.95 "HgN/A
8:30 AM84 °FPassing clouds.7 mph55%29.95 "HgN/A
8:00 AM84 °FPassing clouds.7 mph55%29.95 "HgN/A
7:30 AM82 °FPassing clouds.6 mph62%29.92 "HgN/A
7:00 AM81 °FPassing clouds.3 mph62%29.92 "HgN/A
6:30 AM79 °FPassing clouds.3 mph65%29.92 "HgN/A
6:00 AM79 °FPassing clouds.5 mph65%29.92 "HgN/A
5:00 AM79 °FClear.2 mph65%29.89 "Hg10 mi
4:30 AM79 °FPassing clouds.5 mph65%29.89 "HgN/A
4:00 AM81 °FPassing clouds.6 mph58%29.89 "HgN/A
3:30 AM81 °FClear.5 mph58%29.89 "Hg10 mi
3:00 AM79 °FClear.2 mph61%29.89 "Hg10 mi
2:30 AM81 °FPassing clouds.3 mph62%29.89 "HgN/A
2:00 AM81 °FPassing clouds.5 mph62%29.89 "HgN/A
1:00 AM81 °FPassing clouds.3 mph62%29.89 "HgN/A
Weather by CustomWeather, © 2014

See weather overviewHow to use our weather pages